TimePDT,TemperatureF,Dew PointF,Humidity,Sea Level PressureIn,VisibilityMPH,Wind Direction,Wind SpeedMPH,Gust SpeedMPH,PrecipitationIn,Events,Conditions,WindDirDegrees,DateUTC
12:53 AM,61.0,57.0,87,29.89,4.0,Calm,Calm,-,N/A,,Overcast,0,2013-09-14 07:53:00
1:53 AM,61.0,57.0,87,29.89,2.0,Calm,Calm,-,N/A,,Overcast,0,2013-09-14 08:53:00
2:08 AM,60.8,57.2,88,29.89,1.8,Calm,Calm,-,0.01,Rain,Light Rain,0,2013-09-14 09:08:00
2:18 AM,60.8,57.2,88,29.89,2.0,Calm,Calm,-,0.01,,Overcast,0,2013-09-14 09:18:00
2:53 AM,61.0,57.0,87,29.89,2.5,Calm,Calm,-,0.01,,Overcast,0,2013-09-14 09:53:00
3:18 AM,60.8,57.2,88,29.88,4.0,Calm,Calm,-,N/A,,Overcast,0,2013-09-14 10:18:00
3:53 AM,61.0,57.9,90,29.88,3.0,Calm,Calm,-,N/A,,Overcast,0,2013-09-14 10:53:00
4:00 AM,60.8,57.2,88,29.88,2.5,Calm,Calm,-,N/A,,Overcast,0,2013-09-14 11:00:00
4:09 AM,60.8,57.2,88,29.88,3.0,Calm,Calm,-,N/A,,Overcast,0,2013-09-14 11:09:00
4:18 AM,60.8,57.2,88,29.88,2.0,Calm,Calm,-,N/A,,Overcast,0,2013-09-14 11:18:00
4:20 AM,60.8,57.2,88,29.88,1.8,Calm,Calm,-,N/A,,Overcast,0,2013-09-14 11:20:00
4:27 AM,60.8,57.2,88,29.88,2.0,Calm,Calm,-,N/A,,Overcast,0,2013-09-14 11:27:00
4:43 AM,60.8,57.2,88,29.87,3.0,Calm,Calm,-,0.01,,Overcast,0,2013-09-14 11:43:00
4:51 AM,60.8,57.2,88,29.87,2.5,Calm,Calm,-,0.01,,Overcast,0,2013-09-14 11:51:00
4:53 AM,61.0,57.0,87,29.87,2.5,Calm,Calm,-,0.01,,Overcast,0,2013-09-14 11:53:00
5:35 AM,60.8,57.2,88,29.87,3.0,NE,3.5,-,N/A,,Overcast,40,2013-09-14 12:35:00
5:53 AM,61.0,57.0,87,29.87,3.0,Calm,Calm,-,N/A,,Overcast,0,2013-09-14 12:53:00
6:53 AM,61.0,57.0,87,29.87,5.0,Calm,Calm,-,N/A,,Overcast,0,2013-09-14 13:53:00
7:53 AM,61.0,55.9,83,29.87,7.0,NE,3.5,-,N/A,,Overcast,50,2013-09-14 14:53:00
8:53 AM,60.1,55.9,86,29.87,5.0,North,3.5,-,N/A,,Overcast,10,2013-09-14 15:53:00
9:53 AM,61.0,57.0,87,29.87,6.0,ENE,3.5,-,N/A,,Overcast,70,2013-09-14 16:53:00
10:53 AM,61.0,57.0,87,29.87,8.0,Calm,Calm,-,N/A,,Overcast,0,2013-09-14 17:53:00
11:53 AM,62.1,57.0,84,29.87,8.0,Calm,Calm,-,N/A,,Overcast,0,2013-09-14 18:53:00
12:53 PM,63.0,57.9,84,29.86,6.0,Variable,3.5,-,N/A,,Haze,0,2013-09-14 19:53:00
1:53 PM,63.0,57.9,84,29.85,6.0,WSW,3.5,-,N/A,,Haze,250,2013-09-14 20:53:00
2:53 PM,64.9,57.9,78,29.83,8.0,Calm,Calm,-,N/A,,Overcast,0,2013-09-14 21:53:00
3:53 PM,66.0,59.0,78,29.81,8.0,NNW,4.6,-,N/A,,Overcast,330,2013-09-14 22:53:00
4:53 PM,66.0,59.0,78,29.79,8.0,North,3.5,-,N/A,,Overcast,360,2013-09-14 23:53:00
5:53 PM,63.0,57.9,84,29.78,7.0,NNW,4.6,-,N/A,,Overcast,330,2013-09-15 00:53:00
6:53 PM,61.0,57.0,87,29.77,4.0,NW,5.8,-,N/A,,Overcast,310,2013-09-15 01:53:00
7:23 PM,60.8,57.2,88,29.77,3.0,NW,3.5,-,N/A,,Overcast,320,2013-09-15 02:23:00
7:53 PM,60.1,57.0,90,29.77,2.5,WNW,4.6,-,N/A,,Overcast,300,2013-09-15 02:53:00
8:14 PM,60.8,55.4,82,29.77,3.0,NW,3.5,-,N/A,,Overcast,320,2013-09-15 03:14:00
8:23 PM,60.8,55.4,82,29.77,1.8,Calm,Calm,-,N/A,,Overcast,0,2013-09-15 03:23:00
8:46 PM,60.8,55.4,82,29.78,1.2,NW,4.6,-,N/A,,Overcast,320,2013-09-15 03:46:00
8:53 PM,60.1,55.9,86,29.78,1.0,Calm,Calm,-,N/A,,Overcast,0,2013-09-15 03:53:00
9:16 PM,60.8,57.2,88,29.78,0.8,NNE,3.5,-,N/A,,Mist,20,2013-09-15 04:16:00
9:42 PM,60.8,57.2,88,29.77,1.2,NNE,3.5,-,N/A,,Overcast,20,2013-09-15 04:42:00
9:53 PM,60.1,57.0,90,29.78,1.2,Calm,Calm,-,N/A,,Overcast,0,2013-09-15 04:53:00
10:06 PM,60.8,57.2,88,29.77,1.8,Calm,Calm,-,N/A,,Overcast,0,2013-09-15 05:06:00
10:16 PM,60.8,57.2,88,29.77,0.8,North,3.5,-,N/A,,Overcast,10,2013-09-15 05:16:00
10:53 PM,60.1,57.0,90,29.78,0.8,Calm,Calm,-,N/A,,Mist,0,2013-09-15 05:53:00
11:00 PM,60.8,57.2,88,29.78,1.0,Calm,Calm,-,N/A,,Overcast,0,2013-09-15 06:00:00
11:14 PM,60.8,57.2,88,29.78,1.8,Calm,Calm,-,N/A,,Overcast,0,2013-09-15 06:14:00
11:36 PM,60.8,57.2,88,29.78,1.2,Calm,Calm,-,N/A,,Overcast,0,2013-09-15 06:36:00
11:51 PM,60.8,57.2,88,29.77,1.5,Calm,Calm,-,N/A,,Overcast,0,2013-09-15 06:51:00
11:53 PM,60.1,57.0,90,29.77,1.5,Calm,Calm,-,N/A,,Overcast,0,2013-09-15 06:53:00